Regional Weather Roundup
Issued by NWS Jackson, KY

Home | Current Version | Previous Version | Text Only | Print | Product List | Glossary On
Versions: 1 2 3 4 5 6 7 8 9 10 11 12 13 14 15 16 17 18 19 20 21 22 23 24 25 26 27 28
000
ASUS43 KJKL 191910
RWRJKL

EAST KENTUCKY HOURLY WEATHER ROUNDUP
NATIONAL WEATHER SERVICE JACKSON KY
300 PM EDT THU OCT 19 2017

NOTE: "FAIR" INDICATES FEW OR NO CLOUDS BELOW 12,000 FEET WITH
NO SIGNIFICANT WEATHER AND/OR OBSTRUCTIONS TO VISIBILITY.

* THESE REPORTS ARE NOT UNDER NWS QUALITY CONTROL AND MAY NOT
  REPORT WEATHER SUCH AS PRECIPITATION AND FOG.

KYZ079-080-083-085-087-088-110-112-115-119-120-192000
...EASTERN KENTUCKY...

CITY           SKY/WX    TMP DP  RH WIND       PRES   REMARKS
JACKSON          N/A     70  45  40 CALM      30.27F
LONDON           N/A     68  44  42 CALM      30.27F
SOMERSET*        N/A     68  45  42 W7        30.28F
MONTICELLO*      N/A     71  48  43 W14       30.29F
WILLIAMSBURG*    N/A     70  45  40 SW5       30.27F
MIDDLESBORO*     N/A     70  48  44 SE3       30.28F
HARLAN APT*      N/A     70  37  30 W3        30.28F
PIKE CO APT*     N/A     68  47  45 SW3       30.26F
BIG SANDY APT*   N/A     70  46  42 S8        30.26F
MOREHEAD APT*    N/A     70  46  43 SW8G15    30.26F
$$

KYZ035-036-041-042-044-050-067-078-099-192000
...CENTRAL KENTUCKY...

CITY           SKY/WX    TMP DP  RH WIND       PRES   REMARKS
MT STERLING*     N/A     70  48  46 SW10      30.26F
FLEMING/MASON*   N/A     71  50  47 W12       30.24F
DANVILLE*        N/A     70  48  46 W6        30.27F
LEXINGTON        N/A     71  51  49 SW8       30.25F
FRANKFORT        N/A     72  49  44 S10       30.22F
LOUISVILLE       N/A     73  50  44 S10       30.22F
LEBANON*         N/A     72  48  43 SW9       30.25F
GLASGOW*         N/A     73  48  41 CALM      30.25F
BOWLING GREEN    N/A     73  49  42 S3        30.25F
$$

KYZ091>093-OHZ055-061-077-WVZ005-015-034-035-042-192000
...SOUTHERN OHIO/WEST VIRGINIA...

CITY           SKY/WX    TMP DP  RH WIND       PRES   REMARKS
COVINGTON        N/A     72  52  49 SW9       30.20F
COLUMBUS         N/A     72  50  45 S12       30.17F
DAYTON           N/A     73  53  49 SW9       30.19F
WILMINGTON       N/A     70  52  52 SW10      30.20F
HUNTINGTON       N/A     71  45  39 VRB5      30.23F
CHARLESTON       N/A     72  45  37 SW6       30.23F
PINEVILLE*       N/A     69  42  37 MISG      30.32F
BECKLEY          N/A     69  41  36 SW8       30.28F
BLUEFIELD        N/A     65  36  34 VRB5      30.29F
LOGAN CO APT*    N/A     68  43  40 CALM      30.26F
$$

VAZ002-007-008-TNZ017-027-036-066-071-192000
...SOUTHWEST VIRGINIA/EAST TENNESSEE...

CITY           SKY/WX    TMP DP  RH WIND       PRES   REMARKS
WISE*            N/A     68  41  37 S6        30.31F
JONESVILLE*      N/A     70  41  35 W3        30.31F
ABINGDON*        N/A     69  43  38 SW7       30.30F
BRISTOL          N/A     69  43  38 CALM      30.29F
MORRISTOWN*    CLEAR     68  39  34 CALM      30.29F
SEVIERVILLE*   CLEAR     72  41  33 NW5       30.28F
KNOXVILLE        N/A     70  46  42 W3        30.28F
LAFOLLETTE*    CLEAR     70  48  46 S5        30.32F
OAK RIDGE        N/A     69  48  47 S5        30.29
CROSSVILLE       N/A     69  42  37 NE6       30.30F
NASHVILLE        N/A     73  44  35 CALM      30.26F
$$

...KEY TO REMARKS...
VSB - VISIBILITY IN MILES
WCI - WIND CHILL INDEX
HX  - HEAT INDEX

$$




USA.gov is the U.S. government's official web portal to all federal, state and local government web resources and services.